Home > Weather > Louisville > Past weeks

Flag for U.S.A. Weather for the Past 2 Weeks in Louisville, Kentucky, U.S.A.

Now
22 °F

Scattered clouds.


Feels Like: 12 °F
Forecast: 13 / 24 °F
Wind: 8 mph from North

Location: Standiford Field

Current Time: Feb 13, 2016 at 1:06:05 PM

Latest Report: Feb 13, 2016 at 11:56 AM


Visibility: 10 mi

Pressure: 30.60 "Hg

Humidity: 38%

Dew point: 0 °F

Location of LouisvilleLocation

Historic Weather in Louisville — Graph

°F

Louisville Temperature Yesterday

Maximum temperature yesterday: 34 °F (at 2:56 PM)
Minimum temperature yesterday: 26 °F (at 11:56 PM)
Average temperature yesterday: 29 °F

High & Low Weather Summary for the Past Weeks

 TemperatureHumidityPressure
High68 °F (Jan 31, 3:56 PM)92% (Feb 8, 6:56 AM)30.61 "Hg (Feb 8, 6:56 AM)
Low15 °F (Feb 13, 7:56 AM)24% (Feb 7, 1:56 PM)29.57 "Hg (Feb 2, 10:56 PM)
Average39 °F58%30.05 "Hg
* Reported Jan 29 11:56 AM — Feb 13 11:56 AM, Louisville, Weather by CustomWeather, © 2016

Note: Actual official high and low records may vary slightly from our data, if they occured in-between our weather recording intervals... More about our weather records

Advertising

Louisville Weather History for the Previous 24 Hours

 ConditionsComfort  
Time TempWeatherWind HumidityBarometerVisibility
11:56 AM
Sat, Feb 13
22 °FScattered clouds.8 mph38%30.60 "Hg10 mi
10:56 AM20 °FScattered clouds.6 mph40%30.61 "Hg10 mi
9:56 AM19 °FPassing clouds.10 mph43%30.61 "Hg10 mi
8:56 AM17 °FPassing clouds.13 mph45%30.60 "Hg10 mi
7:56 AM15 °FPassing clouds.10 mph51%30.57 "Hg10 mi
6:56 AM16 °FPassing clouds.10 mph49%30.54 "Hg10 mi
5:56 AM17 °FPassing clouds.14 mph45%30.51 "Hg10 mi
4:56 AM18 °FPassing clouds.15 mph49%30.48 "Hg10 mi
3:56 AM19 °FPassing clouds.18 mph45%30.47 "Hg10 mi
2:56 AM22 °FLight snow. Passing clouds.18 mph52%30.43 "Hg9 mi
1:56 AM22 °FPassing clouds.10 mph46%30.40 "Hg10 mi
12:56 AM24 °FPassing clouds.13 mph46%30.39 "Hg10 mi
11:56 PM
Fri, Feb 12
26 °FPassing clouds.14 mph52%30.36 "Hg9 mi
10:56 PM27 °FPassing clouds.17 mph46%30.34 "Hg10 mi
9:56 PM27 °FPassing clouds.12 mph49%30.34 "Hg10 mi
8:56 PM28 °FLight snow. Mostly cloudy.18 mph66%30.32 "Hg4 mi
7:56 PM29 °FPartly cloudy.20 mph56%30.28 "Hg9 mi
6:56 PM30 °FLight snow. Passing clouds.17 mph61%30.25 "Hg8 mi
5:56 PM31 °FLight snow. Mostly cloudy.21 mph61%30.23 "Hg8 mi
4:56 PM32 °FMostly cloudy.17 mph59%30.20 "Hg10 mi
3:56 PM33 °FMostly cloudy.21 mph56%30.17 "Hg10 mi
2:56 PM34 °FMostly cloudy.18 mph54%30.16 "Hg10 mi
1:56 PM33 °FMostly cloudy.13 mph58%30.16 "Hg10 mi
Weather by CustomWeather, © 2016

See weather overviewHow to use our weather pages